Regional Weather Roundup
Issued by NWS Huntsville, AL

Current Version | Previous Version | Text Only | Print | Product List | Glossary On
Versions: 1 2 3 4 5 6 7 8 9 10 11 12 13 14 15 16 17 18 19 20 21 22 23 24 25 26 27 28 29 30 31 32 33 34 35 36 37 38 39 40 41 42 43 44 45 46 47 48 49 50
000 ASUS44 KHUN 190110 RWRHUN WEATHER ROUNDUP FOR THE TENNESSEE VALLEY NATIONAL WEATHER SERVICE HUNTSVILLE AL 800 PM CDT SUN APR 18 2021 ALZ001>004-190200- NORTHWEST ALABAMA CITY SKY/WX TMP DP RH WIND PRES REMARKS SHOALS AIRPORT NOT AVBL $$ ALZ005>007-016-190200- NORTH CENTRAL ALABAMA CITY SKY/WX TMP DP RH WIND PRES REMARKS CULLMAN AG STN N/A 59 N/A N/A NW3 N/A DECATUR AP CLOUDY 60 41 49 NW13 29.93R HUNTSVILLE AP MOCLDY 60 42 51 NW7 29.92R HUN NWS/UAH N/A 61 41 47 NW6 N/A MERIDIANVILLE CLOUDY 59 42 53 W7 29.92S VINEMONT AP N/A N/A N/A N/A MISG N/A $$ ALZ008>010-190200- NORTHEAST ALABAMA CITY SKY/WX TMP DP RH WIND PRES REMARKS ALBERTVILLE MOCLDY 59 43 55 NW8 29.92R FORT PAYNE CLOUDY 59 43 54 W3 29.90R SCOTTSBORO AP CLOUDY 61 45 55 CALM 29.91R $$ TNZ076-096-097-190200- SOUTHEASTERN MIDDLE TENNESSEE CITY SKY/WX TMP DP RH WIND PRES REMARKS FAYETTEVILLE CLOUDY 59 43 55 W6 29.93S TULLAHOMA CLOUDY 57 43 58 W7 29.90R WINCHESTER CLOUDY 61 43 51 W6 29.90R $$ ...SURROUNDING SITES... CITY SKY/WX TMP DP RH WIND PRES REMARKS ATLANTA PTCLDY 65 40 39 NW8 29.86R ANNISTON PTCLDY 64 43 46 NW8 29.90R BIRMINGHAM PTCLDY 62 41 46 NW7 29.94R CHATTANOOGA MOCLDY 64 41 42 W8 29.88R CORINTH CLOUDY 57 43 58 CALM 29.95S DALTON CLOUDY 63 43 48 CALM 29.88S GADSDEN CLEAR 58 46 64 W6 29.92R GOLDEN TRNGL CLOUDY 61 46 57 NW10G16 29.97R HALEYVILLE CLOUDY 57 43 59 NW5 29.97R JACKSON TN PTCLDY 51 41 68 SW3 29.95S MEMPHIS MOCLDY 53 46 77 NW6 29.98S NASHVILLE CLOUDY 60 41 49 NW7 29.92R OXFORD MS MOCLDY 52 43 71 CALM 29.99S ROME PTCLDY 62 41 46 W7 29.87R SAVANNAH CLOUDY 57 43 58 CALM 29.94S SELMER CLOUDY 52 45 76 W5 29.94S TUPELO CLEAR 58 42 55 NW3 29.96S TUSCALOOSA MOCLDY 63 44 50 NW3 29.93R $$

USA.gov is the U.S. government's official web portal to all federal, state and local government web resources and services.